Location: Unspecified
(0.0000°N, 0.0000°E)
Time: 20:52:47
(UTC+00:00)

STARLINK-1276 - Visible Passes

Search period start: 12 January 2025 00:00
Search period end: 22 January 2025 00:00
Orbit: 546 x 548 km, 53.1° (Epoch: 12 January)

Date Brightness Start Highest point End Pass type
(mag) Time Alt. Az. Time Alt. Az. Time Alt. Az.
16 Jan 5.6 18:58:38 10° NNE 18:59:12 11° NE 18:59:12 11° NE visible
17 Jan 4.9 18:51:09 10° N 18:54:12 20° NE 18:57:04 11° ESE visible
17 Jan 6.1 20:30:25 10° WNW 20:33:00 20° WSW 20:33:00 20° WSW visible
18 Jan 4.4 18:44:09 10° N 18:47:47 30° NE 18:51:26 10° ESE visible
18 Jan 6.8 20:25:04 10° W 20:27:06 13° SW 20:29:08 10° SSW visible
19 Jan 3.8 18:37:23 10° NNW 18:41:21 48° NE 18:45:20 10° SE visible
20 Jan 3.5 18:30:48 10° NNW 18:34:54 79° NE 18:39:01 10° SE visible
